| time (UTC) | temp F | wind direction | speed knots | gust knots | rain 1hr in | rain 24hr in | rain mn in | humidity % | barometer mb |
| 20260502231704 | 47 | 71 | 0.9 | 1.7 | 0.00 | 0.00 | 0.00 | 76 | 1017.7 |
| 20260502223704 | 48 | 82 | 0.9 | 1.7 | 0.00 | 0.00 | 0.00 | 74 | 1017.9 |
| 20260502223204 | 48 | 82 | 1.7 | 1.7 | 0.00 | 0.00 | 0.00 | 74 | 1017.9 |
| 20260502222704 | 49 | 82 | 0.9 | 1.7 | 0.00 | 0.00 | 0.00 | 73 | 1018.0 |
| 20260502221704 | 49 | 82 | 0.9 | 1.7 | 0.00 | 0.00 | 0.00 | 72 | 1018.0 |
| 20260502221205 | 50 | 82 | 0.9 | 1.7 | 0.00 | 0.00 | 0.00 | 71 | 1018.0 |
| 20260502215704 | 51 | 88 | 1.7 | 2.6 | 0.00 | 0.00 | 0.00 | 68 | 1018.1 |
| 20260502212705 | 51 | 121 | 1.7 | 2.6 | 0.00 | 0.00 | 0.00 | 69 | 1018.3 |
| 20260502211704 | 51 | 105 | 2.6 | 2.6 | 0.00 | 0.00 | 0.00 | 70 | 1018.3 |
| 20260502210704 | 53 | 90 | 1.7 | 4.3 | 0.00 | 0.00 | 0.00 | 66 | 1018.3 |
| 20260502210205 | 53 | 107 | 1.7 | 4.3 | 0.00 | 0.00 | 0.00 | 65 | 1018.4 |
| 20260502205705 | 53 | 98 | 2.6 | 5.2 | 0.00 | 0.00 | 0.00 | 64 | 1018.3 |
| 20260502204704 | 54 | 99 | 2.6 | 5.2 | 0.00 | 0.00 | 0.00 | 63 | 1018.4 |
| 20260502203706 | 55 | 114 | 2.6 | 5.2 | 0.00 | 0.00 | 0.00 | 60 | 1018.5 |
| 20260502202705 | 55 | 119 | 2.6 | 5.2 | 0.00 | 0.00 | 0.00 | 61 | 1018.5 |
| 20260502201205 | 56 | 111 | 2.6 | 6.1 | 0.00 | 0.00 | 0.00 | 60 | 1018.5 |
| 20260502194703 | 53 | 97 | 2.6 | 5.2 | 0.00 | 0.00 | 0.00 | 69 | 1018.6 |
| 20260502193203 | 54 | 96 | 0.9 | 1.7 | 0.00 | 0.00 | 0.00 | 70 | 1018.8 |
| 20260502192703 | 54 | 81 | 0.9 | 1.7 | 0.00 | 0.00 | 0.00 | 69 | 1018.7 |
| 20260502191703 | 55 | 81 | 0.9 | 1.7 | 0.00 | 0.00 | 0.00 | 68 | 1018.7 |
| 20260502191203 | 55 | 115 | 0.9 | 2.6 | 0.00 | 0.00 | 0.00 | 67 | 1018.8 |
| 20260502190703 | 56 | 115 | 0.9 | 2.6 | 0.00 | 0.00 | 0.00 | 66 | 1018.7 |
| 20260502185703 | 56 | 92 | 0.9 | 1.7 | 0.00 | 0.00 | 0.00 | 65 | 1018.8 |
| 20260502184703 | 58 | 90 | 0.9 | 1.7 | 0.00 | 0.00 | 0.00 | 61 | 1018.8 |
| 20260502183702 | 58 | 90 | 1.7 | 2.6 | 0.00 | 0.00 | 0.00 | 58 | 1018.7 |
| 20260502183202 | 59 | 99 | 0.9 | 2.6 | 0.00 | 0.00 | 0.00 | 57 | 1018.7 |
| 20260502180705 | 63 | 119 | 0.9 | 2.6 | 0.00 | 0.00 | 0.00 | 48 | 1018.6 |
| 20260502180203 | 64 | 119 | 1.7 | 2.6 | 0.00 | 0.00 | 0.00 | 46 | 1018.5 |
| 20260502164203 | 69 | 143 | 2.6 | 7.0 | 0.00 | 0.00 | 0.00 | 37 | 1018.7 |
| 20260502163704 | 69 | 104 | 4.3 | 7.8 | 0.00 | 0.00 | 0.00 | 36 | 1018.8 |
| 20260502163205 | 70 | 132 | 4.3 | 7.8 | 0.00 | 0.00 | 0.00 | 35 | 1018.9 |
| 20260502162703 | 70 | 140 | 2.6 | 7.8 | 0.00 | 0.00 | 0.00 | 35 | 1019.0 |
| 20260502162203 | 70 | 174 | 2.6 | 7.8 | 0.00 | 0.00 | 0.00 | 35 | 1019.0 |
| 20260502161203 | 70 | 168 | 0.9 | 7.8 | 0.00 | 0.00 | 0.00 | 35 | 1019.0 |
| 20260502160703 | 71 | 172 | 3.5 | 7.8 | 0.00 | 0.00 | 0.00 | 34 | 1019.1 |
| 20260502152203 | 71 | 131 | 1.7 | 2.6 | 0.00 | 0.00 | 0.00 | 34 | 1019.5 |
| 20260502150703 | 71 | 282 | 2.6 | 4.3 | 0.00 | 0.00 | 0.00 | 35 | 1019.7 |
| 20260502121203 | 71 | 208 | 1.7 | 7.0 | 0.00 | 0.00 | 0.00 | 38 | 1021.8 |
| 20260502114203 | 69 | 321 | 1.7 | 5.2 | 0.00 | 0.00 | 0.00 | 39 | 1022.1 |
| 20260502113704 | 70 | 156 | 2.6 | 6.1 | 0.00 | 0.00 | 0.00 | 40 | 1022.2 |
| 20260502113203 | 70 | 170 | 2.6 | 6.1 | 0.00 | 0.00 | 0.00 | 38 | 1022.4 |
| 20260502112703 | 70 | 213 | 3.5 | 6.1 | 0.00 | 0.00 | 0.00 | 40 | 1022.4 |
| 20260502112203 | 70 | 214 | 1.7 | 6.1 | 0.00 | 0.00 | 0.00 | 41 | 1022.4 |
| 20260502111202 | 70 | 260 | 2.6 | 7.8 | 0.00 | 0.00 | 0.00 | 40 | 1022.6 |
| 20260502110704 | 70 | 165 | 4.3 | 7.8 | 0.00 | 0.00 | 0.00 | 40 | 1022.6 |
| 20260502110203 | 70 | 163 | 2.6 | 7.0 | 0.00 | 0.00 | 0.00 | 43 | 1022.7 |
| 20260502105703 | 70 | 152 | 4.3 | 7.0 | 0.00 | 0.00 | 0.00 | 44 | 1022.8 |
| 20260502105203 | 69 | 219 | 1.7 | 7.0 | 0.00 | 0.00 | 0.00 | 45 | 1022.8 |
| 20260502104703 | 69 | 211 | 2.6 | 7.8 | 0.00 | 0.00 | 0.00 | 44 | 1022.9 |
| 20260502104204 | 69 | 222 | 4.3 | 7.8 | 0.00 | 0.00 | 0.00 | 46 | 1023.0 |
| 20260502103704 | 69 | 203 | 4.3 | 7.8 | 0.00 | 0.00 | 0.00 | 44 | 1023.0 |
| 20260502102203 | 69 | 223 | 1.7 | 6.1 | 0.00 | 0.00 | 0.00 | 48 | 1023.0 |
| 20260502101703 | 69 | 217 | 3.5 | 10.4 | 0.00 | 0.00 | 0.00 | 47 | 1023.0 |
| 20260502101203 | 69 | 134 | 3.5 | 10.4 | 0.00 | 0.00 | 0.00 | 47 | 1023.0 |
| 20260502100703 | 68 | 191 | 4.3 | 10.4 | 0.00 | 0.00 | 0.00 | 47 | 1023.1 |
| 20260502090205 | 66 | 243 | 2.6 | 7.0 | 0.00 | 0.00 | 0.00 | 53 | 1023.8 |
| 20260502070704 | 61 | 240 | 0.9 | 2.6 | 0.00 | 0.00 | 0.00 | 61 | 1024.4 |
| 20260502070204 | 61 | 238 | 1.7 | 2.6 | 0.00 | 0.00 | 0.00 | 63 | 1024.5 |
| 20260502065203 | 61 | 233 | 1.7 | 2.6 | 0.00 | 0.00 | 0.00 | 64 | 1024.5 |
| 20260502064703 | 60 | 223 | 0.9 | 2.6 | 0.00 | 0.00 | 0.00 | 68 | 1024.5 |
| 20260502064203 | 60 | 223 | 1.7 | 2.6 | 0.00 | 0.00 | 0.00 | 68 | 1024.5 |
| 20260502061704 | 58 | 32 | 0.9 | 1.7 | 0.00 | 0.00 | 0.00 | 65 | 1024.7 |
| 20260502055704 | 54 | 32 | 0.0 | 0.9 | 0.00 | 0.00 | 0.00 | 77 | 1024.7 |
| 20260502044703 | 41 | 32 | 0.9 | 1.7 | 0.00 | 0.00 | 0.00 | 92 | 1024.7 |
| 20260502044203 | 41 | 32 | 0.9 | 2.6 | 0.00 | 0.00 | 0.00 | 93 | 1024.7 |
| 20260502043704 | 40 | 32 | 0.9 | 2.6 | 0.00 | 0.00 | 0.00 | 93 | 1024.6 |
| 20260502043204 | 40 | 32 | 1.7 | 2.6 | 0.00 | 0.00 | 0.00 | 93 | 1024.7 |
| 20260502042704 | 40 | 32 | 1.7 | 2.6 | 0.00 | 0.00 | 0.00 | 93 | 1024.7 |
| 20260502041204 | 39 | 32 | 1.7 | 1.7 | 0.00 | 0.00 | 0.00 | 94 | 1024.6 |
| 20260502035705 | 39 | 32 | 1.7 | 2.6 | 0.00 | 0.00 | 0.00 | 93 | 1024.6 |
| 20260502035204 | 39 | 32 | 0.9 | 1.7 | 0.00 | 0.00 | 0.00 | 92 | 1024.7 |
| 20260502034204 | 39 | 32 | 0.9 | 2.6 | 0.00 | 0.00 | 0.00 | 92 | 1024.6 |
| 20260502033703 | 39 | 32 | 1.7 | 2.6 | 0.00 | 0.00 | 0.00 | 92 | 1024.5 |
| 20260502032204 | 39 | 46 | 1.7 | 2.6 | 0.00 | 0.00 | 0.00 | 92 | 1024.6 |
| 20260502031204 | 39 | 46 | 1.7 | 2.6 | 0.00 | 0.00 | 0.00 | 93 | 1024.6 |
| 20260502030704 | 39 | 46 | 0.9 | 1.7 | 0.00 | 0.00 | 0.00 | 93 | 1024.6 |
| 20260502025203 | 39 | 46 | 1.7 | 2.6 | 0.00 | 0.00 | 0.00 | 92 | 1024.7 |
| 20260502024704 | 40 | 46 | 1.7 | 2.6 | 0.00 | 0.00 | 0.00 | 93 | 1024.7 |
| 20260502024204 | 40 | 46 | 1.7 | 2.6 | 0.00 | 0.00 | 0.00 | 93 | 1024.8 |
| 20260502023204 | 39 | 46 | 1.7 | 2.6 | 0.00 | 0.00 | 0.00 | 93 | 1024.8 |
| 20260502021704 | 39 | 46 | 1.7 | 2.6 | 0.00 | 0.00 | 0.00 | 93 | 1024.9 |
| 20260502021204 | 39 | 46 | 1.7 | 2.6 | 0.00 | 0.00 | 0.00 | 93 | 1024.9 |
| 20260502020204 | 40 | 46 | 0.9 | 1.7 | 0.00 | 0.00 | 0.00 | 92 | 1024.9 |
| 20260502015204 | 40 | 46 | 1.7 | 2.6 | 0.00 | 0.00 | 0.00 | 92 | 1025.0 |
| 20260502014204 | 40 | 46 | 0.9 | 2.6 | 0.00 | 0.00 | 0.00 | 92 | 1025.0 |
| 20260502011704 | 40 | 46 | 0.9 | 1.7 | 0.00 | 0.00 | 0.00 | 92 | 1025.2 |
| 20260502011205 | 41 | 46 | 1.7 | 1.7 | 0.00 | 0.00 | 0.00 | 92 | 1025.3 |
| 20260502010704 | 41 | 46 | 0.9 | 2.6 | 0.00 | 0.00 | 0.00 | 92 | 1025.3 |
| 20260502010203 | 41 | 46 | 0.9 | 2.6 | 0.00 | 0.00 | 0.00 | 92 | 1025.4 |
| 20260502005705 | 41 | 46 | 1.7 | 2.6 | 0.00 | 0.00 | 0.00 | 92 | 1025.3 |
| 20260502005203 | 41 | 46 | 1.7 | 1.7 | 0.00 | 0.00 | 0.00 | 92 | 1025.3 |
| 20260502003204 | 41 | 46 | 1.7 | 2.6 | 0.00 | 0.00 | 0.00 | 92 | 1025.5 |
| 20260502001703 | 41 | 46 | 1.7 | 2.6 | 0.00 | 0.00 | 0.00 | 92 | 1025.6 |
| 20260501234704 | 41 | 46 | 1.7 | 2.6 | 0.00 | 0.00 | 0.00 | 91 | 1025.8 |
| 20260501233204 | 42 | 46 | 0.9 | 1.7 | 0.00 | 0.00 | 0.00 | 90 | 1025.8 |
| 20260501232704 | 42 | 46 | 0.9 | 1.7 | 0.00 | 0.00 | 0.00 | 90 | 1025.8 |